Time,TemperatureF,DewpointF,PressureIn,WindDirection,WindDirectionDegrees,WindSpeedMPH,WindSpeedGustMPH,Humidity,HourlyPrecipIn,Conditions,Clouds,dailyrainin,SolarRadiationWatts/m^2,SoftwareType,DateUTC
2013-02-25 00:01:00,31.2,28.0,30.04,West,259,8.0,-999.0,88,-99.99,,,0.00,0,weatherlink.com 1.10,2013-02-25 05:01:00,
2013-02-25 00:16:00,31.4,28.0,30.04,West,263,9.0,-999.0,87,-99.99,,,0.00,0,weatherlink.com 1.10,2013-02-25 05:16:00,
2013-02-25 00:32:00,31.6,28.0,30.05,WSW,250,6.0,-999.0,86,-99.99,,,0.00,0,weatherlink.com 1.10,2013-02-25 05:32:00,
2013-02-25 00:47:00,31.9,28.0,30.05,West,276,10.0,-999.0,85,-99.99,,,0.00,0,weatherlink.com 1.10,2013-02-25 05:47:00,
2013-02-25 01:02:00,32.0,28.0,30.05,WNW,282,11.0,-999.0,84,-99.99,,,0.00,0,weatherlink.com 1.10,2013-02-25 06:02:00,
2013-02-25 01:17:00,32.1,28.0,30.06,WSW,240,10.0,-999.0,83,-99.99,,,0.00,0,weatherlink.com 1.10,2013-02-25 06:17:00,
2013-02-25 01:32:00,32.2,28.0,30.06,West,259,9.0,-999.0,83,-99.99,,,0.00,0,weatherlink.com 1.10,2013-02-25 06:32:00,
2013-02-25 01:47:00,32.2,27.0,30.07,WSW,242,5.0,-999.0,82,-99.99,,,0.00,0,weatherlink.com 1.10,2013-02-25 06:47:00,
2013-02-25 02:02:00,32.2,27.0,30.07,WSW,250,11.0,-999.0,82,-99.99,,,0.00,0,weatherlink.com 1.10,2013-02-25 07:02:00,
2013-02-25 02:17:00,32.1,27.0,30.08,WSW,252,10.0,-999.0,82,-99.99,,,0.00,0,weatherlink.com 1.10,2013-02-25 07:17:00,
2013-02-25 02:32:00,32.1,27.0,30.08,West,260,6.0,-999.0,82,-99.99,,,0.00,0,weatherlink.com 1.10,2013-02-25 07:32:00,
2013-02-25 02:47:00,32.1,27.0,30.08,WSW,250,6.0,-999.0,82,-99.99,,,0.00,0,weatherlink.com 1.10,2013-02-25 07:47:00,
2013-02-25 03:02:00,32.1,27.0,30.09,SW,235,5.0,-999.0,82,-99.99,,,0.00,0,weatherlink.com 1.10,2013-02-25 08:02:00,
2013-02-25 03:17:00,32.1,27.0,30.09,SW,234,9.0,-999.0,81,-99.99,,,0.00,0,weatherlink.com 1.10,2013-02-25 08:17:00,
2013-02-25 03:32:00,32.0,27.0,30.09,SW,235,15.0,-999.0,81,-99.99,,,0.00,0,weatherlink.com 1.10,2013-02-25 08:32:00,
2013-02-25 03:47:00,31.9,27.0,30.09,West,281,8.0,-999.0,81,-99.99,,,0.00,0,weatherlink.com 1.10,2013-02-25 08:47:00,
2013-02-25 04:02:00,31.9,27.0,30.09,WSW,242,10.0,-999.0,81,-99.99,,,0.00,0,weatherlink.com 1.10,2013-02-25 09:02:00,
2013-02-25 04:17:00,31.9,27.0,30.10,WSW,250,6.0,-999.0,81,-99.99,,,0.00,0,weatherlink.com 1.10,2013-02-25 09:17:00,
2013-02-25 04:32:00,31.9,27.0,30.11,WSW,252,1.0,-999.0,81,-99.99,,,0.00,0,weatherlink.com 1.10,2013-02-25 09:32:00,
2013-02-25 04:47:00,32.0,27.0,30.11,West,269,9.0,-999.0,82,-99.99,,,0.00,0,weatherlink.com 1.10,2013-02-25 09:47:00,
2013-02-25 05:02:00,32.0,27.0,30.12,SW,232,10.0,-999.0,82,-99.99,,,0.00,0,weatherlink.com 1.10,2013-02-25 10:02:00,
2013-02-25 05:17:00,32.0,27.0,30.12,WSW,249,4.0,-999.0,82,-99.99,,,0.00,0,weatherlink.com 1.10,2013-02-25 10:17:00,
2013-02-25 05:32:00,31.9,27.0,30.12,WNW,284,6.0,-999.0,82,-99.99,,,0.00,0,weatherlink.com 1.10,2013-02-25 10:32:00,
2013-02-25 05:47:00,31.9,27.0,30.13,WSW,253,7.0,-999.0,83,-99.99,,,0.00,0,weatherlink.com 1.10,2013-02-25 10:47:00,
2013-02-25 06:02:00,31.9,27.0,30.13,WSW,254,6.0,-999.0,83,-99.99,,,0.00,0,weatherlink.com 1.10,2013-02-25 11:02:00,
2013-02-25 06:17:00,31.9,27.0,30.13,WSW,257,5.0,-999.0,83,-99.99,,,0.00,0,weatherlink.com 1.10,2013-02-25 11:17:00,
2013-02-25 06:32:00,31.9,27.0,30.14,WSW,254,5.0,-999.0,83,-99.99,,,0.00,0,weatherlink.com 1.10,2013-02-25 11:32:00,
2013-02-25 06:47:00,31.9,27.0,30.14,WSW,257,6.0,-999.0,83,-99.99,,,0.00,0,weatherlink.com 1.10,2013-02-25 11:47:00,
2013-02-25 07:02:00,31.9,27.0,30.15,WSW,241,7.0,-999.0,83,-99.99,,,0.00,5,weatherlink.com 1.10,2013-02-25 12:02:00,
2013-02-25 07:17:00,31.9,28.0,30.15,WSW,253,1.0,-999.0,84,-99.99,,,0.00,21,weatherlink.com 1.10,2013-02-25 12:17:00,
2013-02-25 07:32:00,32.0,28.0,30.15,WSW,257,0.0,-999.0,84,-99.99,,,0.00,47,weatherlink.com 1.10,2013-02-25 12:32:00,
2013-02-25 07:47:00,32.1,28.0,30.16,WSW,243,4.0,-999.0,84,-99.99,,,0.00,76,weatherlink.com 1.10,2013-02-25 12:47:00,
2013-02-25 08:17:00,32.6,28.0,30.17,WSW,250,5.0,-999.0,83,-99.99,,,0.00,120,weatherlink.com 1.10,2013-02-25 13:17:00,
2013-02-25 08:33:00,32.9,28.0,30.17,WSW,249,5.0,-999.0,83,-99.99,,,0.00,192,weatherlink.com 1.10,2013-02-25 13:33:00,
2013-02-25 08:48:00,33.6,29.0,30.18,WSW,257,6.0,-999.0,82,-99.99,,,0.00,167,weatherlink.com 1.10,2013-02-25 13:48:00,
2013-02-25 09:18:00,34.3,29.0,30.18,WNW,289,6.0,-999.0,81,-99.99,,,0.00,207,weatherlink.com 1.10,2013-02-25 14:18:00,
2013-02-25 09:33:00,34.7,29.0,30.19,WNW,288,7.0,-999.0,80,-99.99,,,0.00,216,weatherlink.com 1.10,2013-02-25 14:33:00,
2013-02-25 09:48:00,35.0,29.0,30.19,West,281,9.0,-999.0,79,-99.99,,,0.00,334,weatherlink.com 1.10,2013-02-25 14:48:00,
2013-02-25 10:03:00,35.3,29.0,30.19,West,279,5.0,-999.0,78,-99.99,,,0.00,334,weatherlink.com 1.10,2013-02-25 15:03:00,
2013-02-25 10:18:00,35.6,29.0,30.19,WSW,254,4.0,-999.0,77,-99.99,,,0.00,341,weatherlink.com 1.10,2013-02-25 15:18:00,
2013-02-25 10:33:00,36.0,29.0,30.19,West,275,2.0,-999.0,75,-99.99,,,0.00,415,weatherlink.com 1.10,2013-02-25 15:33:00,
2013-02-25 10:48:00,36.6,29.0,30.19,WNW,288,11.0,-999.0,73,-99.99,,,0.00,399,weatherlink.com 1.10,2013-02-25 15:48:00,
2013-02-25 11:03:00,36.9,29.0,30.20,WNW,284,8.0,-999.0,72,-99.99,,,0.00,334,weatherlink.com 1.10,2013-02-25 16:03:00,
2013-02-25 11:18:00,37.2,29.0,30.20,West,265,5.0,-999.0,72,-99.99,,,0.00,369,weatherlink.com 1.10,2013-02-25 16:18:00,
2013-02-25 11:33:00,37.4,28.0,30.20,WNW,282,7.0,-999.0,69,-99.99,,,0.00,260,weatherlink.com 1.10,2013-02-25 16:33:00,
2013-02-25 11:48:00,37.5,28.0,30.20,West,280,7.0,-999.0,68,-99.99,,,0.00,330,weatherlink.com 1.10,2013-02-25 16:48:00,
2013-02-25 12:03:00,37.5,28.0,30.21,West,279,10.0,-999.0,68,-99.99,,,0.00,246,weatherlink.com 1.10,2013-02-25 17:03:00,
2013-02-25 12:18:00,37.5,27.0,30.20,WNW,284,13.0,-999.0,67,-99.99,,,0.00,327,weatherlink.com 1.10,2013-02-25 17:18:00,
2013-02-25 12:33:00,37.6,27.0,30.21,West,275,10.0,-999.0,66,-99.99,,,0.00,336,weatherlink.com 1.10,2013-02-25 17:33:00,
2013-02-25 12:48:00,37.9,27.0,30.22,West,259,6.0,-999.0,65,-99.99,,,0.00,323,weatherlink.com 1.10,2013-02-25 17:48:00,
2013-02-25 13:03:00,37.8,27.0,30.22,West,281,7.0,-999.0,64,-99.99,,,0.00,396,weatherlink.com 1.10,2013-02-25 18:03:00,
2013-02-25 13:18:00,37.6,26.0,30.21,West,274,3.0,-999.0,64,-99.99,,,0.00,281,weatherlink.com 1.10,2013-02-25 18:18:00,
2013-02-25 13:33:00,37.3,26.0,30.21,West,274,8.0,-999.0,63,-99.99,,,0.00,237,weatherlink.com 1.10,2013-02-25 18:33:00,
2013-02-25 13:48:00,37.8,26.0,30.21,SW,231,4.0,-999.0,62,-99.99,,,0.00,329,weatherlink.com 1.10,2013-02-25 18:48:00,
2013-02-25 14:03:00,38.4,25.0,30.21,WSW,254,8.0,-999.0,60,-99.99,,,0.00,357,weatherlink.com 1.10,2013-02-25 19:03:00,
2013-02-25 14:18:00,38.8,27.0,30.20,West,274,4.0,-999.0,62,-99.99,,,0.00,548,weatherlink.com 1.10,2013-02-25 19:18:00,
2013-02-25 14:33:00,39.1,25.0,30.21,WNW,284,8.0,-999.0,57,-99.99,,,0.00,512,weatherlink.com 1.10,2013-02-25 19:33:00,
2013-02-25 14:48:00,39.2,24.0,30.20,West,269,8.0,-999.0,55,-99.99,,,0.00,480,weatherlink.com 1.10,2013-02-25 19:48:00,
2013-02-25 15:03:00,39.2,25.0,30.20,WSW,257,5.0,-999.0,57,-99.99,,,0.00,519,weatherlink.com 1.10,2013-02-25 20:03:00,
2013-02-25 15:18:00,39.6,24.0,30.20,West,281,7.0,-999.0,55,-99.99,,,0.00,383,weatherlink.com 1.10,2013-02-25 20:18:00,
2013-02-25 15:33:00,38.9,24.0,30.20,WNW,300,7.0,-999.0,56,-99.99,,,0.00,171,weatherlink.com 1.10,2013-02-25 20:33:00,
2013-02-25 15:48:00,38.5,26.0,30.20,WSW,257,6.0,-999.0,60,-99.99,,,0.00,123,weatherlink.com 1.10,2013-02-25 20:48:00,
2013-02-25 16:18:00,37.3,26.0,30.20,WNW,285,6.0,-999.0,65,-99.99,,,0.00,91,weatherlink.com 1.10,2013-02-25 21:18:00,
2013-02-25 16:33:00,37.1,27.0,30.21,West,281,6.0,-999.0,67,-99.99,,,0.00,33,weatherlink.com 1.10,2013-02-25 21:33:00,
2013-02-25 16:48:00,36.9,27.0,30.20,WNW,293,1.0,-999.0,68,-99.99,,,0.00,19,weatherlink.com 1.10,2013-02-25 21:48:00,
2013-02-25 17:03:00,36.4,27.0,30.22,WNW,294,4.0,-999.0,70,-99.99,,,0.00,0,weatherlink.com 1.10,2013-02-25 22:03:00,
2013-02-25 17:18:00,36.2,28.0,30.22,WNW,293,5.0,-999.0,72,-99.99,,,0.00,0,weatherlink.com 1.10,2013-02-25 22:18:00,
2013-02-25 17:34:00,36.0,28.0,30.23,WNW,299,3.0,-999.0,73,-99.99,,,0.00,0,weatherlink.com 1.10,2013-02-25 22:34:00,
2013-02-25 17:49:00,35.7,28.0,30.22,WNW,288,0.0,-999.0,74,-99.99,,,0.00,0,weatherlink.com 1.10,2013-02-25 22:49:00,
2013-02-25 18:04:00,35.5,28.0,30.22,WNW,288,1.0,-999.0,74,-99.99,,,0.00,0,weatherlink.com 1.10,2013-02-25 23:04:00,
2013-02-25 18:19:00,35.3,28.0,30.22,WNW,288,0.0,-999.0,75,-99.99,,,0.00,0,weatherlink.com 1.10,2013-02-25 23:19:00,
2013-02-25 18:34:00,35.1,28.0,30.23,WNW,288,0.0,-999.0,75,-99.99,,,0.00,0,weatherlink.com 1.10,2013-02-25 23:34:00,
2013-02-25 18:49:00,35.0,28.0,30.23,WNW,288,0.0,-999.0,76,-99.99,,,0.00,0,weatherlink.com 1.10,2013-02-25 23:49:00,
2013-02-25 19:04:00,34.8,28.0,30.23,WNW,288,0.0,-999.0,76,-99.99,,,0.00,0,weatherlink.com 1.10,2013-02-26 00:04:00,
2013-02-25 19:19:00,34.6,28.0,30.24,WNW,288,0.0,-999.0,77,-99.99,,,0.00,0,weatherlink.com 1.10,2013-02-26 00:19:00,
2013-02-25 19:34:00,34.5,28.0,30.23,WNW,288,0.0,-999.0,77,-99.99,,,0.00,0,weatherlink.com 1.10,2013-02-26 00:34:00,
2013-02-25 19:49:00,34.2,28.0,30.24,WNW,288,0.0,-999.0,78,-99.99,,,0.00,0,weatherlink.com 1.10,2013-02-26 00:49:00,
2013-02-25 20:04:00,34.1,28.0,30.24,WNW,288,0.0,-999.0,79,-99.99,,,0.00,0,weatherlink.com 1.10,2013-02-26 01:04:00,
2013-02-25 20:19:00,33.9,28.0,30.23,WNW,288,0.0,-999.0,79,-99.99,,,0.00,0,weatherlink.com 1.10,2013-02-26 01:19:00,
2013-02-25 20:34:00,33.8,30.0,30.24,WNW,288,0.0,-999.0,84,-99.99,,,0.00,0,weatherlink.com 1.10,2013-02-26 01:34:00,
2013-02-25 20:49:00,33.6,28.0,30.23,WNW,288,0.0,-999.0,80,-99.99,,,0.00,0,weatherlink.com 1.10,2013-02-26 01:49:00,
2013-02-25 21:04:00,33.4,28.0,30.23,WNW,288,0.0,-999.0,80,-99.99,,,0.00,0,weatherlink.com 1.10,2013-02-26 02:04:00,
2013-02-25 21:19:00,33.4,28.0,30.23,WNW,288,0.0,-999.0,81,-99.99,,,0.00,0,weatherlink.com 1.10,2013-02-26 02:19:00,
2013-02-25 21:34:00,33.4,28.0,30.24,WNW,288,0.0,-999.0,81,-99.99,,,0.00,0,weatherlink.com 1.10,2013-02-26 02:34:00,
2013-02-25 21:49:00,33.2,28.0,30.24,WNW,288,0.0,-999.0,81,-99.99,,,0.00,0,weatherlink.com 1.10,2013-02-26 02:49:00,
2013-02-25 22:04:00,32.8,28.0,30.24,WNW,288,0.0,-999.0,81,-99.99,,,0.00,0,weatherlink.com 1.10,2013-02-26 03:04:00,
2013-02-25 22:19:00,32.2,27.0,30.25,WNW,288,0.0,-999.0,81,-99.99,,,0.00,0,weatherlink.com 1.10,2013-02-26 03:19:00,
2013-02-25 22:34:00,31.2,26.0,30.25,WNW,288,0.0,-999.0,82,-99.99,,,0.00,0,weatherlink.com 1.10,2013-02-26 03:34:00,
2013-02-25 22:49:00,30.8,26.0,30.24,WNW,288,0.0,-999.0,83,-99.99,,,0.00,0,weatherlink.com 1.10,2013-02-26 03:49:00,
2013-02-25 23:04:00,30.3,26.0,30.23,WNW,288,0.0,-999.0,84,-99.99,,,0.00,0,weatherlink.com 1.10,2013-02-26 04:04:00,
2013-02-25 23:19:00,29.9,26.0,30.24,WNW,288,0.0,-999.0,84,-99.99,,,0.00,0,weatherlink.com 1.10,2013-02-26 04:19:00,
2013-02-25 23:34:00,29.4,26.0,30.23,WNW,288,0.0,-999.0,85,-99.99,,,0.00,0,weatherlink.com 1.10,2013-02-26 04:34:00,
2013-02-25 23:49:00,29.0,25.0,30.23,WNW,288,0.0,-999.0,85,-99.99,,,0.00,0,weatherlink.com 1.10,2013-02-26 04:49:00,